Regional Weather Roundup
Issued by NWS

Home | Current Version | Previous Version | Text Only | Print | Product List | Glossary On
Versions: 1 2 3 4 5 6 7 8 9 10 11 12 13 14 15 16 17 18 19 20 21 22 23 24 25 26 27 28 29 30 31 32 33 34 35 36 37 38 39 40 41 42 43 44 45 46 47 48 49 50
000
ASUS45 KABQ 030710
RWRNM
NEW MEXICO REGIONAL WEATHER ROUNDUP
NATIONAL WEATHER SERVICE ALBUQUERQUE NM
100 AM MDT MON AUG 03 2015

NOTE: "FAIR" MEANS FEW OR NO CLOUDS BELOW 12,000 FEET AGL WITH NO
       SIGNIFICANT WEATHER OR OBSTRUCTIONS TO VISION.

      THIS PRODUCT IS RELEASED AS TWO VERSIONS.  ONE VERSION NEAR
      THE TOP OF THE HOUR CONTAINING PRELIMINARY DATA FROM ALBUQUERQUE
      AND OTHER STATIONS.  A FINAL VERSION WITH ADDITIONAL DATA IS
      ISSUED ABOUT 10 MINUTES AFTER THE HOUR.

NMZ501-503-504-510>518-030800-
NORTHWEST PLATEAU/NORTHCENTRAL MOUNTAINS

CITY           SKY/WX    TMP DP  RH WIND       PRES   REMARKS
FARMINGTON     PTCLDY    61  58  90 N5        30.15F
LOS ALAMOS     LGT RAIN  61  55  79 SW10      30.30R
SANTA FE       CLOUDY    64  55  72 NW7       30.22R
TAOS           CLOUDY    57  48  72 N6        30.27F
ANGEL FIRE     FAIR      51  50  96 CALM      30.37S

$$
NMZ402-403-502-505>509-030800-
WESTCENTRAL MOUNTAINS/SOUTHWEST MOUNTAINS

CITY           SKY/WX    TMP DP  RH WIND       PRES   REMARKS
GALLUP         CLEAR     56  54  93 CALM      30.23S
GRANTS         MOCLDY    59  59  99 SE5       30.26S
SILVER CITY      N/A     64  57  77 N10       30.17S

$$
NMZ407-409-411-412-030800-
SOUTHERN DESERTS

CITY           SKY/WX    TMP DP  RH WIND       PRES   REMARKS
LORDSBURG      FAIR      77  55  47 W3        30.08R
DEMING         MOCLDY    74  60  61 E5        30.08R
LAS CRUCES     DRIZZLE   70  63  78 E9        30.09F
HOLLOMAN AFB   MOCLDY    75  60  59 S13       30.06R
ALAMOGORDO     MOCLDY    75  57  53 S13       30.08S
T OR C         MOCLDY    71  58  63 W9        30.10R

$$
NMZ519>523-030800-
CENTRAL VALLEYS/CENTRAL HIGHLANDS

CITY           SKY/WX    TMP DP  RH WIND       PRES   REMARKS
ALBUQUERQUE    CLOUDY    72  57  59 N6        30.19R
DOUBLE EAGLE   DRIZZLE   65  60  84 CALM      30.23R
MORIARTY ARPT    N/A     65  56  74 CALM      30.23R
CLINES CORNERS CLOUDY    62  54  74 NE7       30.24F
BELEN          CLOUDY    69  58  69 NW10      30.17R
SOCORRO        CLOUDY    70  62  76 CALM      30.13R

$$
NMZ524>526-539-540-030800-
SOUTHCENTRAL MOUNTAINS

CITY           SKY/WX    TMP DP  RH WIND       PRES   REMARKS
RUIDOSO          N/A    N/A N/A N/A MISG        N/A

$$
NMZ527>531-030800-
NORTHEAST HIGHLANDS/NORTHEAST PLAINS

CITY           SKY/WX    TMP DP  RH WIND       PRES   REMARKS
RATON          NOT AVBL
CLAYTON        CLOUDY    68  62  81 CALM      30.10S

$$
NMZ532>537-030800-
EASTCENTRAL PLAINS

CITY           SKY/WX    TMP DP  RH WIND       PRES   REMARKS
TUCUMCARI      MOCLDY    69  65  86 NW5       30.03F
CANNON AFB     MOCLDY    68  65  88 E8        30.07F
CLOVIS AIRPORT CLOUDY    70  63  78 CALM      30.10R

$$
NMZ028-029-538-030800-
SOUTHEAST PLAINS

CITY           SKY/WX    TMP DP  RH WIND       PRES   REMARKS
ROSWELL        PTCLDY    77  59  53 SE3       30.00S
ARTESIA        PTCLDY    77  63  61 S14       29.99F
CARLSBAD       MOCLDY    84  58  40 S9        29.97F
HOBBS            N/A    N/A N/A N/A MISG        N/A


$$


USA.gov is the U.S. government's official web portal to all federal, state and local government web resources and services.